Location: T. Spence Memorial Observatory
(32.7356°N, 82.2098°W)
Time: 13:19:57
(UTC-05:00)

Daily predictions for brighter satellites

Satellite Brightness Start Highest point End
(mag) Time Altitude Azimuth Time Altitude Azimuth Time Altitude Azimuth
Cosmos 1295 Rocket 4.5 17:39:06 10° N 17:45:11 68° E 17:51:13 10° SSE
Cosmos 1844 Rocket 2.9 17:39:39 10° SSW 17:45:13 80° WNW 17:50:51 10° NNE
PAYLOAD A 3.9 17:41:53 10° SSE 17:46:37 82° ENE 17:51:32 10° N
Cosmos 1346 Rocket 4.4 17:45:10 10° SE 17:47:29 15° E 17:49:48 10° NE
SPOT 3 Rocket 3.6 17:48:22 10° SSE 17:53:29 63° ENE 17:58:36 10° N
MSX 4.2 17:48:16 10° SE 17:53:35 41° ENE 17:58:55 10° N
Cosmos 2341 Rocket 4.3 17:48:22 10° N 17:54:33 74° W 18:00:45 10° S
SL-8 R/B 3.8 17:51:06 10° SW 17:55:52 76° NW 18:00:39 10° NE
Cosmos 1844 3.8 17:53:08 10° SSW 17:58:43 84° WNW 18:04:18 10° NNE
CZ-4 R/B 1.6 17:55:26 10° S 17:59:38 84° W 18:03:48 10° NNW
SJ-12 3.9 17:56:58 10° SSE 18:01:01 83° E 18:05:08 10° N
CORIOLIS 4.2 17:56:51 10° SSE 18:02:12 65° ENE 18:07:33 10° N
USA 32 4.2 18:02:56 10° S 18:08:09 82° W 18:13:23 10° N
IDEFIX/ARIANE 42P 2.6 18:06:40 10° SSE 18:11:52 88° WSW 18:17:06 10° NNW
ASTRO F (AKARI) 4.3 18:10:41 10° N 18:13:49 79° WNW 18:16:57 10° SSW
Meteor 1-12 Rocket 4.4 18:08:45 10° N 18:14:24 52° E 18:20:07 10° SSE
Cosmos 2278 Rocket 2.2 18:10:11 10° SSW 18:15:49 80° ESE 18:21:29 10° NNE
Cosmos 1975 3.4 18:12:31 10° NNE 18:16:16 35° E 18:19:58 10° SSE
NOSS 3-3 (A) 4.0 18:13:42 10° SSW 18:19:48 89° SE 18:26:20 10° NNE
Nadezhda 3 Rocket 4.3 18:14:07 10° SSE 18:19:51 42° E 18:25:39 10° NNE
NOSS 3-3 (C) 4.0 18:13:48 10° SSW 18:19:54 89° SE 18:26:26 10° NNE
COSMO-SKYMED 1 2.6 18:18:03 10° NNE 18:22:22 63° E 18:26:39 10° S
Cosmos 1544 Rocket 3.6 18:17:56 10° N 18:22:24 84° W 18:26:52 10° S
COSMOS 2406 4.0 18:19:41 10° NNW 18:25:16 55° WSW 18:30:51 10° S
Cosmos 864 Rocket 4.5 18:20:36 10° N 18:26:54 80° E 18:33:14 10° S
Tiangong 1 0.8 18:25:33 10° WSW 18:28:34 85° SSE 18:29:52 31° ENE
Cosmos 494 Rocket 4.0 18:24:13 10° N 18:29:25 63° ENE 18:34:37 10° SSE
ATLAS 2AS CENTAUR R/B 2.9 18:25:17 10° NNW 18:33:17 69° ENE 18:40:39 10° SE
Meteor 1-13 Rocket 4.4 18:29:24 10° SSE 18:34:47 50° E 18:40:18 10° NNE
Cosmos 1484 Rocket 2.5 18:31:53 10° SSE 18:35:38 70° ENE 18:39:21 10° N
Cosmos 1536 Rocket 4.1 18:33:13 10° SSW 18:37:36 62° W 18:42:03 10° N
YAOGAN 1 4.3 18:40:48 10° SSW 18:44:44 34° W 18:48:42 10° NNW
Cosmos 2082 Rocket 3.2 18:41:00 10° N 18:45:09 25° NE 18:45:09 25° NE
Timation 1 Rocket 4.4 18:41:29 10° S 18:47:16 55° ESE 18:50:53 23° NE
NOAA 12 4.3 18:43:33 10° SE 18:48:32 44° ENE 18:53:32 10° N
Cosmos 1833 Rocket 4.1 18:45:01 10° N 18:47:38 20° NNE 18:47:38 20° NNE
Cosmos 2251 Rocket 3.8 18:44:13 10° NNW 18:49:32 70° WSW 18:54:47 10° S
METEOR-M 4.4 18:48:01 10° SE 18:53:00 41° ENE 18:57:59 10° N
Cosmos 1025 Rocket 3.6 18:49:23 10° SSE 18:52:55 35° ESE 18:52:55 35° ESE
Meteor 2-21 Rocket 4.4 18:51:11 10° N 18:57:19 64° E 19:03:23 10° SSE
Cosmos 1500 3.2 18:55:05 10° N 18:58:55 78° W 19:02:45 10° S
Cosmos 921 Rocket 2.8 18:56:08 10° S 19:00:19 74° ESE 19:01:34 44° NNE
Meteor 2-16 Rocket 4.4 18:56:17 10° N 19:02:15 56° E 19:08:11 10° SSE
BREEZE M DEB (TANK) 3.7 18:53:21 10° WSW 19:02:27 43° NW 19:04:05 28° N
Meteor 1-28 Rocket 3.4 19:00:17 22° N 19:02:36 70° WNW 19:06:21 10° SSW
Hubble Space Telescope 3.6 19:04:20 10° SW 19:06:04 12° SSW 19:07:47 10° S
Okean 1-7 Rocket 3.6 19:02:19 10° S 19:06:52 87° W 19:09:30 25° N
Meteor 2-4 Rocket 3.6 19:01:45 10° S 19:07:01 54° E 19:08:15 44° NE
OTV 4 2.3 19:13:59 10° W 19:16:04 30° WSW 19:16:04 30° WSW
NOSS 2-1 (D) 3.3 19:13:23 10° SW 19:17:09 73° WNW 19:17:09 73° WNW
NOSS 2-1 (C) 3.3 19:14:04 10° SW 19:17:48 74° WNW 19:17:48 74° WNW
GEOS 3 Rocket 3.4 19:16:36 28° SE 19:19:23 86° ENE 19:24:31 10° NNW
Cosmos 1535 Rocket 4.3 19:15:48 10° N 19:22:06 72° E 19:28:16 10° SSE
Delta 2 Rocket 3.5 19:18:14 10° WSW 19:21:53 72° WNW 19:21:53 72° WNW
Cosmos 1934 Rocket 3.9 19:18:51 10° N 19:24:58 59° E 19:31:08 10° SSE
Timation 2 Rocket 4.0 19:22:15 10° NNW 19:29:07 72° ENE 19:33:01 28° SSE
Cosmos 2056 Rocket 3.8 19:30:38 10° S 19:35:00 58° S 19:35:00 58° S
ATLAS 3B CENTAUR R/B 3.1 19:19:45 10° W 19:36:14 66° S 19:38:07 50° SE
NOSS 2-1 (E) 4.4 19:32:46 10° SW 19:35:45 42° W 19:35:45 42° W
Cosmos 2239 Rocket 4.5 19:33:09 10° N 19:39:21 79° W 19:45:29 10° S
CZ-3B DEB 4.5 19:36:23 10° WNW 19:40:44 22° N 19:43:53 18° NNE
Cosmos 1821 Rocket 4.1 19:42:16 10° NNW 19:48:18 69° W 19:54:20 10° S
Cosmos 2082 Rocket 4.1 20:24:37 10° NW 20:27:09 24° WNW 20:27:09 24° WNW
FALCON 9 R/B 4.0 20:42:27 10° W 20:51:03 39° WNW 20:51:03 39° WNW
